Flag for Ireland Weather past 2 weeks in Cork, Ireland

Now
45 °F

Passing clouds.


Feels Like: 45 °F
Forecast: 35 / 55 °F
Wind: 2 mph from West

Location: Cork Airport


UV Index: 3 (Moderate)

Visibility: 13 mi


Pressure: 30.15 "Hg

Humidity: 94%

Dew point: 43 °F

Location of CorkLocation

Historic Weather in Cork

°F

Cork temperature yesterday

Maximum temperature yesterday: 53 °F (at 2:00 PM)
Minimum temperature yesterday: 44 °F (at 9:00 PM)
Average temperature yesterday: 49 °F

Past Weeks' High & Low Weather Summary

 TemperatureHumidityPressure
High58 °F (Apr 17, 2:00 PM)100% (Apr 4, 4:00 AM)30.38 "Hg (Apr 4, 4:00 AM)
Low38 °F (Apr 8, 2:00 AM)53% (Apr 17, 3:00 PM)29.47 "Hg (Apr 6, 6:00 AM)
Average48 °F84%30.07 "Hg
* Reported Apr 3 11:00 PM — Apr 18 11:00 PM, Cork, Weather by CustomWeather, © 2014

Note: Actual official high and low records may vary slightly from our data, if they occured in-between our weather recording intervals... More about our weather records

Advertising

Historic Weather Conditions — Data for Previous 24 hours

 ConditionsComfort  
Time TempWeatherWind HumidityBarometerVisibility
11:00 PM
Apr 18
45 °FPassing clouds.2 mph94%30.15 "Hg12 mi
9:00 PM44 °FPassing clouds.2 mph91%30.15 "Hg16 mi
8:00 PM48 °FPassing clouds.3 mph84%30.14 "Hg19 mi
7:00 PM51 °FPassing clouds.3 mph79%30.15 "Hg19 mi
6:00 PM51 °FPartly sunny.5 mph81%30.16 "Hg19 mi
5:00 PM51 °FOvercast.5 mph82%30.17 "Hg25 mi
4:00 PM51 °FOvercast.5 mph82%30.17 "Hg25 mi
3:00 PM51 °FOvercast.5 mph79%30.19 "Hg31 mi
2:00 PM53 °FOvercast.5 mph71%30.19 "Hg31 mi
1:00 PM52 °FOvercast.5 mph78%30.21 "Hg31 mi
12:00 PM50 °FOvercast.3 mph80%30.21 "Hg31 mi
11:00 AM51 °FOvercast.2 mph71%30.21 "Hg31 mi
10:00 AM51 °FPartly sunny.3 mph72%30.21 "Hg31 mi
9:00 AM50 °FPartly sunny.2 mph82%30.20 "Hg22 mi
8:00 AM47 °FPartly sunny.3 mph91%30.20 "Hg19 mi
7:00 AM46 °FOvercast.3 mph92%30.20 "Hg19 mi
6:00 AM46 °FPassing clouds.3 mph92%30.20 "Hg19 mi
5:00 AM46 °FLow clouds.3 mph92%30.21 "Hg19 mi
4:00 AM47 °FLow clouds.3 mph92%30.22 "Hg19 mi
3:00 AM47 °FLow clouds.3 mph91%30.23 "Hg16 mi
2:00 AM48 °FLow clouds.3 mph90%30.24 "Hg16 mi
1:00 AM48 °FLow clouds.2 mph89%30.24 "Hg16 mi
Weather by CustomWeather, © 2014

See weather overview